Date String (YYYY-MM-DD hh:mm:ss) UTC,Instrument flags,Ambient pressure (hPa),Sample flow (lpm),Bypass flow (lpm),Sample temperature (°C),Ambient temperature (°C),ASC tube jacket temperature (°C),LED temperature (°C),Box temperature (°C),Sample RH (%),Span deviation,Mass concentration (μg/m³),Mass concentration (μg/m³),Mass concentration (μg/m³)
DateTimeUTC,F1_M11,P_M11,Q1_M11,Q2_M11,T1_M11,T2_M11,T3_M11,T4_M11,T5_M11,U1_M11,ZSPAN_M11,X2_M11,X0_M11,X1_M11
2023-04-05 01:00:00,,0820.7,5.01,0.00,23.5,22.0,00.0,32.0,24.9,11.0,0000.0,0003.96,0007.52,0003.69
2023-04-05 01:01:00,,0820.7,4.99,0.00,23.4,21.8,00.0,31.9,24.8,11.0,0000.0,0003.95,0007.52,0003.68
2023-04-05 01:02:00,,0820.8,5.00,0.00,23.4,21.9,00.0,31.9,25.0,11.1,0000.0,0003.93,0007.81,0003.68
2023-04-05 01:03:00,,0820.8,5.01,0.00,23.5,22.8,00.0,31.8,25.3,11.1,0000.0,0003.91,0006.97,0003.67
2023-04-05 01:04:00,,0820.8,5.00,0.00,23.7,23.7,00.0,31.8,25.6,11.1,0000.0,0003.88,0006.88,0003.67
2023-04-05 01:05:00,,0820.9,4.98,0.00,23.7,23.7,00.0,31.9,25.5,11.0,0000.0,0003.88,0007.07,0003.65
2023-04-05 01:06:00,,0820.8,5.01,0.00,23.7,23.4,00.0,31.9,25.3,11.1,0000.0,0003.87,0007.04,0003.64
2023-04-05 01:07:00,,0820.8,5.00,0.00,23.7,23.0,00.0,32.0,25.1,11.1,0000.0,0003.87,0007.08,0003.63
2023-04-05 01:08:00,,0820.8,5.00,0.00,23.6,22.7,00.0,32.0,25.0,11.2,0000.0,0003.89,0007.13,0003.63
2023-04-05 01:09:00,,0820.8,5.00,0.00,23.6,22.4,00.0,32.0,25.0,11.2,0000.0,0003.91,0007.20,0003.64
2023-04-05 01:10:00,,0820.9,5.01,0.00,23.5,22.1,00.0,32.0,24.9,11.2,0000.0,0003.93,0007.18,0003.67
2023-04-05 01:11:00,,0820.8,5.01,0.00,23.5,21.8,00.0,31.9,24.8,11.3,0000.0,0003.94,0007.09,0003.67
2023-04-05 01:12:00,,0820.9,5.01,0.00,23.4,21.6,00.0,31.9,24.8,11.3,0000.0,0003.97,0007.28,0003.67
2023-04-05 01:13:00,,0820.9,5.00,0.00,23.4,21.7,00.0,31.9,24.9,11.3,0000.0,0003.98,0006.15,0003.68
2023-04-05 01:14:00,,0821.0,5.00,0.00,23.5,22.6,00.0,31.8,25.2,11.3,0000.0,0003.98,0006.12,0003.68
2023-04-05 01:15:00,,0821.1,5.00,0.00,23.6,23.3,00.0,31.8,25.5,11.3,0001.9,0004.00,0006.24,0003.68
2023-04-05 01:16:00,,0821.1,5.00,0.00,23.6,23.2,00.0,31.9,25.3,11.3,0002.8,0004.03,0006.23,0003.69
2023-04-05 01:17:00,,0821.1,5.00,0.00,23.6,23.0,00.0,31.9,25.1,11.3,0002.7,0004.03,0006.23,0003.69
2023-04-05 01:18:00,,0821.0,5.00,0.00,23.6,22.7,00.0,31.9,25.1,11.2,0002.4,0004.02,0006.15,0003.69
2023-04-05 01:19:00,,0821.1,5.00,0.00,23.5,22.5,00.0,31.9,25.0,11.1,0002.7,0004.03,0006.16,0003.69
2023-04-05 01:20:00,,0821.1,5.00,0.00,23.5,22.2,00.0,31.9,24.9,11.2,0002.5,0004.01,0006.07,0003.68
2023-04-05 01:21:00,,0821.1,5.01,0.00,23.5,22.0,00.0,31.9,24.9,11.2,0001.5,0003.98,0006.03,0003.65
2023-04-05 01:22:00,,0821.1,5.00,0.00,23.4,21.9,00.0,31.9,24.8,11.2,0001.2,0003.99,0006.25,0003.63
2023-04-05 01:23:00,,0821.0,5.00,0.00,23.4,21.7,00.0,31.9,24.8,11.2,0001.4,0003.95,0006.05,0003.62
2023-04-05 01:24:00,,0821.1,4.99,0.00,23.3,21.6,00.0,31.9,24.8,11.2,0001.2,0003.91,0005.89,0003.60
2023-04-05 01:25:00,,0821.1,5.01,0.00,23.3,21.5,00.0,31.8,24.7,11.1,0000.6,0003.92,0005.90,0003.59
2023-04-05 01:26:00,,0821.3,5.01,0.00,23.3,21.4,00.0,31.8,24.6,11.1,0000.0,0003.89,0005.91,0003.57
2023-04-05 01:27:00,,0821.3,5.01,0.00,23.2,21.4,00.0,31.8,24.6,11.1,0000.0,0003.86,0005.79,0003.55
2023-04-05 01:28:00,,0821.2,4.99,0.00,23.2,21.5,00.0,31.7,24.8,11.1,0000.0,0003.81,0006.80,0003.52
2023-04-05 01:29:00,,0821.3,5.01,0.00,23.3,22.4,00.0,31.7,25.1,11.0,0000.0,0003.78,0006.74,0003.49
2023-04-05 01:30:00,,0821.3,5.01,0.00,23.5,23.4,00.0,31.7,25.4,11.0,0000.0,0003.75,0006.62,0003.48
2023-04-05 01:31:00,,0821.3,5.00,0.00,23.6,23.6,00.0,31.7,25.4,11.0,0000.0,0003.76,0006.65,0003.47
2023-04-05 01:32:00,,0821.4,5.00,0.00,23.5,23.3,00.0,31.8,25.2,11.1,0000.0,0003.74,0007.46,0003.48
2023-04-05 01:33:00,,0821.4,5.00,0.00,23.5,23.0,00.0,31.8,25.1,11.1,0000.0,0003.76,0007.84,0003.50
2023-04-05 01:34:00,,0821.7,5.01,0.00,23.5,22.7,00.0,31.8,25.0,11.1,0000.0,0003.80,0008.35,0003.52
2023-04-05 01:35:00,,0821.8,5.00,0.00,23.5,22.5,00.0,31.8,25.0,11.1,0000.0,0003.85,0008.51,0003.54
2023-04-05 01:36:00,,0822.0,4.99,0.00,23.4,22.3,00.0,31.8,24.9,11.1,0000.0,0003.84,0008.50,0003.56
2023-04-05 01:37:00,,0822.0,5.01,0.00,23.4,22.2,00.0,31.8,24.9,11.1,0000.0,0003.86,0008.43,0003.57
2023-04-05 01:38:00,,0822.0,5.01,0.00,23.4,22.0,00.0,31.8,24.9,11.1,0000.0,0003.85,0008.40,0003.58
2023-04-05 01:39:00,,0822.0,4.99,0.00,23.4,21.9,00.0,31.8,24.8,11.2,0000.0,0003.88,0007.86,0003.61
2023-04-05 01:40:00,,0822.0,5.00,0.00,23.3,21.8,00.0,31.8,24.8,11.2,0000.0,0003.92,0007.93,0003.64
2023-04-05 01:41:00,,0821.9,5.01,0.00,23.3,21.7,00.0,31.8,24.8,11.2,0000.0,0003.93,0007.94,0003.65
2023-04-05 01:42:00,,0821.9,5.01,0.00,23.3,21.7,00.0,31.8,24.8,11.2,0000.0,0003.93,0007.95,0003.66
2023-04-05 01:43:00,,0821.9,5.01,0.00,23.3,21.6,00.0,31.7,24.7,11.2,0000.0,0003.94,0007.97,0003.67
2023-04-05 01:44:00,,0822.0,5.00,0.00,23.2,21.6,00.0,31.7,24.7,11.2,0000.0,0003.94,0008.47,0003.67
2023-04-05 01:45:00,,0822.0,4.99,0.00,23.2,21.5,00.0,31.7,24.7,11.2,0000.0,0003.90,0007.85,0003.65
2023-04-05 01:46:00,,0821.8,4.99,0.00,23.2,21.5,00.0,31.7,24.7,11.2,0000.0,0003.85,0007.79,0003.61
2023-04-05 01:47:00,,0821.7,5.01,0.00,23.2,21.5,00.0,31.7,24.7,11.2,0000.0,0003.81,0007.64,0003.59
2023-04-05 01:48:00,,0821.7,5.01,0.00,23.2,21.4,00.0,31.6,24.6,11.1,0000.0,0003.78,0007.65,0003.55
2023-04-05 01:49:00,,0821.5,4.99,0.00,23.1,21.3,00.0,31.6,24.6,11.1,0000.0,0003.76,0007.63,0003.55
2023-04-05 01:50:00,,0821.5,4.99,0.00,23.1,21.2,00.0,31.6,24.6,11.2,0000.0,0003.75,0007.60,0003.53
2023-04-05 01:51:00,,0821.6,4.99,0.00,23.1,21.2,00.0,31.6,24.5,11.2,0000.0,0003.72,0007.51,0003.51
2023-04-05 01:52:00,,0821.5,5.00,0.00,23.1,21.1,00.0,31.6,24.5,11.3,0000.0,0003.70,0007.52,0003.49
2023-04-05 01:53:00,,0821.5,5.01,0.00,23.0,21.1,00.0,31.5,24.4,11.3,0000.0,0003.67,0007.65,0003.48
2023-04-05 01:54:00,,0821.5,4.99,0.00,23.1,21.5,00.0,31.5,24.7,11.3,0000.0,0003.67,0007.05,0003.48
2023-04-05 01:55:00,,0821.6,5.01,0.00,23.2,22.5,00.0,31.4,25.0,11.3,0000.0,0003.66,0005.43,0003.46
2023-04-05 01:56:00,,0821.6,4.99,0.00,23.3,23.3,00.0,31.5,25.2,11.2,0000.0,0003.65,0005.50,0003.45
2023-04-05 01:57:00,,0821.6,4.99,0.00,23.3,23.2,00.0,31.5,25.1,11.2,0000.0,0003.65,0005.29,0003.45
2023-04-05 01:58:00,,0821.7,5.00,0.00,23.3,23.0,00.0,31.6,25.0,11.3,0000.0,0003.67,0005.93,0003.46
2023-04-05 01:59:00,,0821.6,5.00,0.00,23.3,22.7,00.0,31.6,24.9,11.3,0000.0,0003.68,0006.10,0003.46
